period_start,C,m1,H,J0,J1,J2,J3,J4,J5,JA,JB,JC,JD,JJ,JK,JN,#
2014-10-08 00:03:01,0.07,0.75,0.00,23.27,27.47,30.21,4.80,24.17,1025.42,2036.00,3150.24,3108.08,3365.78,350.14,350.44,6.42,0000 0000 0000 0000 000000
2014-10-08 00:08:02,0.05,0.75,0.00,23.26,27.47,30.21,4.80,24.07,1025.42,2036.01,3149.42,3107.83,3365.04,350.17,350.53,6.45,0000 0000 0000 0000 000000
2014-10-08 00:13:04,0.08,0.75,0.00,23.27,27.47,30.21,4.83,24.18,1025.42,2036.00,3148.63,3107.07,3364.44,350.06,350.32,6.48,0000 0000 0000 0000 000000
2014-10-08 00:18:05,0.04,0.75,0.00,23.25,27.46,30.21,4.83,24.17,1025.42,2036.00,3147.79,3106.85,3363.92,350.09,350.44,6.51,0000 0000 0000 0000 000000
2014-10-08 00:23:06,0.07,0.75,0.00,23.29,27.46,30.21,4.71,24.13,1025.42,2036.01,3146.96,3106.09,3363.12,349.03,349.41,6.53,0000 0000 0000 0000 000000
2014-10-08 00:28:08,0.05,0.76,0.00,23.28,27.45,30.20,4.81,24.05,1025.42,2036.00,3146.08,3105.89,3362.64,349.73,349.95,6.56,0000 0000 0000 0000 000000
2014-10-08 00:33:09,0.07,0.76,0.00,23.28,27.45,30.19,4.84,24.12,1025.42,2036.00,3145.23,3105.10,3362.01,349.93,350.29,6.59,0000 0000 0000 0000 000000
2014-10-08 00:38:10,0.08,0.76,0.00,23.31,27.45,30.20,4.81,24.23,1025.41,2036.01,3144.41,3104.68,3361.29,350.56,350.88,6.62,0000 0000 0000 0000 000000
2014-10-08 00:43:11,0.06,0.76,0.00,23.29,27.45,30.19,4.77,24.06,1025.42,2036.00,3143.60,3104.02,3360.73,349.74,350.24,6.65,0000 0000 0000 0000 000000
2014-10-08 00:48:13,0.07,0.76,0.00,23.29,27.45,30.20,4.84,24.20,1025.41,2036.01,3142.67,3103.64,3360.04,350.03,350.46,6.68,0000 0000 0000 0000 000000
2014-10-08 00:53:14,0.05,0.77,0.00,23.32,27.45,30.20,4.78,24.13,1025.41,2036.02,3141.92,3103.03,3359.49,349.59,349.91,6.71,0000 0000 0000 0000 000000
2014-10-08 00:58:15,0.06,0.77,0.00,23.29,27.45,30.20,4.80,24.18,1025.41,2036.00,3141.07,3102.63,3358.90,349.81,350.18,6.74,0000 0000 0000 0000 000000
2014-10-08 01:03:17,0.06,0.77,0.00,23.30,27.45,30.20,4.79,24.19,1025.41,2036.00,3140.21,3102.02,3358.09,349.95,350.56,6.77,0000 0000 0000 0000 000000
2014-10-08 01:08:18,0.07,0.77,0.00,23.29,27.45,30.19,4.78,24.16,1025.41,2036.00,3139.48,3101.64,3357.67,349.58,349.68,6.80,0000 0000 0000 0000 000000
2014-10-08 01:13:19,0.04,0.77,0.00,23.30,27.45,30.19,4.81,24.16,1025.41,2036.00,3138.75,3101.02,3357.01,350.12,350.28,6.83,0000 0000 0000 0000 000000
2014-10-08 01:18:21,0.08,0.77,0.00,23.35,27.45,30.22,4.79,24.06,1025.41,2036.01,3137.83,3100.57,3356.27,349.95,350.30,6.86,0000 0000 0000 0000 000000
2014-10-08 01:23:22,0.05,0.78,0.00,23.32,27.45,30.19,4.78,23.95,1025.38,2036.01,3136.95,3100.01,3355.72,350.37,350.75,6.89,0000 0000 0000 0000 000000
2014-10-08 01:28:23,0.07,0.78,0.00,23.28,27.45,30.20,4.81,24.09,1025.38,2036.00,3136.02,3099.34,3355.01,350.25,350.60,6.92,0000 0000 0000 0000 000000
2014-10-08 01:33:25,0.06,0.78,0.00,23.31,27.45,30.19,4.82,24.13,1025.40,2036.00,3135.11,3098.94,3354.19,350.24,350.61,6.94,0000 0000 0000 0000 000000
2014-10-08 01:38:26,0.09,0.78,0.00,23.32,27.45,30.19,4.82,24.13,1025.39,2036.00,3134.36,3098.16,3353.54,349.75,350.31,6.97,0000 0000 0000 0000 000000
2014-10-08 01:43:27,0.02,0.78,0.00,23.36,27.45,30.18,4.81,23.97,1025.37,2036.00,3133.70,3097.95,3353.00,349.77,350.00,7.00,0000 0000 0000 0000 000000
2014-10-08 01:48:29,0.08,0.79,0.00,23.37,27.45,30.16,4.82,24.01,1025.38,2036.00,3132.92,3097.18,3352.41,350.67,350.92,7.03,0000 0000 0000 0000 000000
2014-10-08 01:53:30,0.04,0.79,0.00,23.35,27.45,30.16,4.82,24.07,1025.36,2036.00,3132.05,3096.87,3351.88,349.83,349.99,7.06,0000 0000 0000 0000 000000
2014-10-08 01:58:31,0.08,0.79,0.00,23.33,27.45,30.16,4.80,24.18,1025.32,2036.00,3131.18,3096.11,3351.11,349.90,350.16,7.09,0000 0000 0000 0000 000000
2014-10-08 02:03:32,0.06,0.79,0.00,23.36,27.45,30.15,4.82,24.04,1025.37,2036.00,3130.29,3095.86,3350.59,350.16,350.44,7.12,0000 0000 0000 0000 000000
2014-10-08 02:08:34,0.06,0.79,0.00,23.33,27.45,30.16,4.81,24.03,1025.39,2036.00,3129.50,3095.13,3349.98,349.85,350.14,7.15,0000 0000 0000 0000 000000
2014-10-08 02:13:35,0.07,0.80,0.00,23.38,27.45,30.14,4.83,24.11,1025.40,2036.00,3128.67,3094.69,3349.16,350.07,350.37,7.18,0000 0000 0000 0000 000000
2014-10-08 02:18:36,0.04,0.80,0.00,23.39,27.45,30.16,4.83,24.09,1025.40,2036.00,3127.96,3094.03,3348.75,349.76,349.78,7.21,0000 0000 0000 0000 000000
2014-10-08 02:23:37,0.07,0.80,0.00,23.36,27.45,30.18,4.78,24.07,1025.40,2036.00,3126.98,3093.70,3348.04,350.44,350.81,7.24,0000 0000 0000 0000 000000
2014-10-08 02:28:38,0.06,0.80,0.00,23.37,27.45,30.19,4.75,24.02,1025.40,2036.00,3126.08,3093.03,3347.36,349.38,349.84,7.27,0000 0000 0000 0000 000000
2014-10-08 02:33:39,0.04,0.80,0.00,23.36,27.45,30.19,4.86,24.11,1025.39,2036.00,3125.44,3092.86,3346.96,349.70,349.96,7.30,0000 0000 0000 0000 000000
2014-10-08 02:38:40,0.09,0.81,0.00,23.38,27.45,30.18,4.73,24.14,1025.40,2036.00,3124.45,3092.06,3346.23,349.65,350.00,7.33,0000 0000 0000 0000 000000
2014-10-08 02:43:42,0.04,0.81,0.00,23.38,27.45,30.19,4.86,24.07,1025.40,2036.00,3123.79,3091.82,3345.77,350.27,350.56,7.35,0000 0000 0000 0000 000000
2014-10-08 02:48:43,0.07,0.81,0.00,23.38,27.45,30.16,4.75,24.07,1025.40,2036.00,3122.88,3091.06,3345.04,349.64,349.57,7.38,0000 0000 0000 0000 000000
2014-10-08 02:53:44,0.05,0.81,0.00,23.39,27.45,30.16,4.82,24.03,1025.40,2036.00,3122.07,3090.83,3344.58,350.16,350.35,7.41,0000 0000 0000 0000 000000
2014-10-08 02:58:45,0.06,0.81,0.00,23.38,27.45,30.15,4.79,24.15,1025.41,2036.00,3121.23,3090.05,3343.98,349.94,350.26,7.44,0000 0000 0000 0000 000000
2014-10-08 03:03:47,0.06,0.81,0.00,23.37,27.45,30.15,4.77,23.87,1025.41,2036.00,3120.64,3089.80,3343.23,350.27,350.62,7.47,0000 0000 0000 0000 000000
2014-10-08 03:08:48,0.06,0.82,0.00,23.39,27.44,30.15,4.84,24.01,1025.41,2036.00,3119.80,3089.06,3342.74,350.34,350.47,7.50,0000 0000 0000 0000 000000
2014-10-08 03:13:49,0.05,0.82,0.00,23.37,27.43,30.14,4.78,24.03,1025.41,2036.00,3119.02,3088.78,3342.03,349.85,350.09,7.53,0000 0000 0000 0000 000000
2014-10-08 03:18:51,0.07,0.82,0.00,23.40,27.42,30.15,4.85,24.00,1025.41,2036.00,3118.22,3088.07,3341.42,350.42,350.71,7.56,0000 0000 0000 0000 000000
2014-10-08 03:23:52,0.05,0.82,0.00,23.40,27.42,30.12,4.81,24.01,1025.41,2036.00,3117.42,3087.74,3340.92,350.60,350.92,7.59,0000 0000 0000 0000 000000
2014-10-08 03:28:53,0.06,0.82,0.00,23.38,27.42,30.14,4.82,24.08,1025.41,2036.00,3116.66,3087.04,3340.11,350.19,350.36,7.62,0000 0000 0000 0000 000000
2014-10-08 03:33:54,0.03,0.83,0.00,23.38,27.42,30.13,4.81,24.07,1025.41,2036.00,3115.90,3086.85,3339.77,349.92,350.33,7.65,0000 0000 0000 0000 000000
2014-10-08 03:38:56,0.07,0.83,0.00,23.41,27.42,30.11,4.83,24.18,1025.41,2036.00,3115.05,3086.07,3339.03,349.87,349.93,7.68,0000 0000 0000 0000 000000
2014-10-08 03:43:57,0.05,0.83,0.00,23.40,27.42,30.11,4.80,24.00,1025.41,2036.01,3114.43,3085.95,3338.61,349.89,350.13,7.71,0000 0000 0000 0000 000000
2014-10-08 03:48:58,0.07,0.83,0.00,23.41,27.42,30.10,4.78,23.93,1025.41,2036.01,3113.63,3085.18,3338.01,349.39,349.56,7.74,0000 0000 0000 0000 000000
2014-10-08 03:53:59,0.04,0.83,0.00,23.40,27.41,30.11,4.75,24.08,1025.41,2036.00,3112.78,3084.98,3337.29,349.46,349.70,7.76,0000 0000 0000 0000 000000
2014-10-08 03:59:00,0.07,0.84,0.00,23.41,27.40,30.09,4.82,24.12,1025.41,2036.01,3111.91,3084.29,3336.85,350.01,350.29,7.79,0000 0000 0000 0000 000000
2014-10-08 04:04:01,0.05,0.84,0.00,23.42,27.40,30.10,4.80,24.04,1025.41,2036.00,3111.03,3083.93,3336.06,350.05,350.04,7.82,0000 0000 0000 0000 000000
2014-10-08 04:09:03,0.09,0.84,0.00,23.44,27.40,30.09,4.82,24.07,1025.41,2036.02,3110.27,3083.18,3335.54,350.04,350.22,7.85,0000 0000 0000 0000 000000
2014-10-08 04:14:04,0.03,0.84,0.00,23.41,27.40,30.08,4.84,24.14,1025.41,2036.01,3109.50,3082.95,3334.99,350.01,350.11,7.88,0000 0000 0000 0000 000000
2014-10-08 04:19:05,0.08,0.84,0.00,23.40,27.40,30.09,4.78,24.07,1025.41,2036.01,3108.71,3082.16,3334.21,349.19,349.38,7.91,0000 0000 0000 0000 000000
2014-10-08 04:24:07,0.02,0.84,0.00,23.42,27.40,30.08,4.83,24.07,1025.40,2036.03,3108.01,3081.97,3333.93,350.14,350.40,7.94,0000 0000 0000 0000 000000
2014-10-08 04:29:08,0.09,0.85,0.00,23.43,27.40,30.09,4.81,24.16,1025.40,2036.03,3107.10,3081.33,3333.12,349.96,350.11,7.97,0000 0000 0000 0000 000000
2014-10-08 04:34:09,0.05,0.85,0.00,23.42,27.39,30.08,4.81,23.98,1025.40,2036.02,3106.38,3080.99,3332.66,349.42,349.61,8.00,0000 0000 0000 0000 000000
2014-10-08 04:39:10,0.08,0.85,0.00,23.42,27.38,30.08,4.77,24.09,1025.40,2036.04,3105.35,3080.27,3331.97,349.69,349.89,8.03,0000 0000 0000 0000 000000
2014-10-08 04:44:11,0.04,0.85,0.00,23.40,27.37,30.07,4.80,24.07,1025.40,2036.04,3104.73,3079.98,3331.20,349.95,350.13,8.06,0000 0000 0000 0000 000000
2014-10-08 04:49:13,0.07,0.85,0.00,23.40,27.37,30.08,4.81,23.93,1025.40,2036.06,3103.92,3079.38,3330.83,350.33,350.40,8.09,0000 0000 0000 0000 000000
2014-10-08 04:54:14,0.04,0.86,0.00,23.42,27.37,30.07,4.78,24.01,1025.39,2036.08,3103.12,3078.97,3330.07,349.42,349.67,8.12,0000 0000 0000 0000 000000
2014-10-08 04:59:15,0.09,0.86,0.00,23.42,27.37,30.05,4.81,24.06,1025.40,2036.03,3102.40,3078.33,3329.57,350.30,350.54,8.15,0000 0000 0000 0000 000000
2014-10-08 05:04:17,0.05,0.86,0.00,23.39,27.37,30.06,4.76,24.08,1025.40,2036.05,3101.40,3077.94,3328.94,350.02,350.21,8.17,0000 0000 0000 0000 000000
2014-10-08 05:09:18,0.09,0.86,0.00,23.35,27.37,30.06,4.83,24.07,1025.40,2036.04,3100.50,3077.19,3328.09,349.58,350.01,8.20,0000 0000 0000 0000 000000
2014-10-08 05:14:19,0.04,0.86,0.00,23.38,27.37,30.05,4.77,24.09,1025.40,2036.09,3099.76,3076.95,3327.67,350.11,350.36,8.23,0000 0000 0000 0000 000000
2014-10-08 05:19:20,0.06,0.87,0.00,23.41,27.37,30.04,4.78,24.09,1025.40,2036.08,3098.97,3076.21,3327.02,350.14,350.34,8.26,0000 0000 0000 0000 000000
2014-10-08 05:24:22,0.05,0.87,0.00,23.40,27.36,30.04,4.77,23.98,1025.40,2036.08,3098.10,3075.92,3326.61,349.18,349.40,8.29,0000 0000 0000 0000 000000
2014-10-08 05:29:23,0.07,0.87,0.00,23.33,27.35,30.02,4.77,23.99,1025.40,2036.05,3097.24,3075.11,3326.00,349.38,349.84,8.32,0000 0000 0000 0000 000000
2014-10-08 05:34:24,0.07,0.87,0.00,23.35,27.35,30.02,4.74,24.02,1025.40,2036.18,3096.69,3074.99,3325.38,349.73,349.98,8.35,0000 0000 0000 0000 000000
2014-10-08 05:39:26,0.05,0.87,0.00,23.33,27.35,29.99,4.81,24.07,1025.40,2036.19,3095.96,3074.33,3324.96,349.94,350.24,8.38,0000 0000 0000 0000 000000
2014-10-08 05:44:27,0.06,0.88,0.00,23.30,27.35,30.01,4.80,23.88,1025.40,2036.18,3095.10,3073.99,3324.14,349.86,350.19,8.41,0000 0000 0000 0000 000000
2014-10-08 05:49:28,0.07,0.88,0.00,23.33,27.35,29.97,4.77,23.98,1025.40,2036.27,3094.26,3073.34,3323.87,349.52,349.87,8.44,0000 0000 0000 0000 000000
2014-10-08 05:54:29,0.05,0.88,0.00,23.32,27.35,29.97,4.84,24.00,1025.40,2036.32,3093.64,3073.00,3323.11,350.61,350.96,8.47,0000 0000 0000 0000 000000
2014-10-08 05:59:30,0.11,0.88,0.00,23.33,27.35,29.98,4.85,24.04,1025.40,2036.38,3092.87,3072.61,3322.65,350.46,350.80,8.50,0000 0000 0000 0000 000000
2014-10-08 06:04:32,0.00,0.88,0.00,23.35,27.35,29.97,4.81,24.00,1025.41,2036.22,3091.96,3072.01,3321.97,350.16,350.41,8.53,0000 0000 0000 0000 000000
2014-10-08 06:09:33,0.12,0.89,0.00,23.31,27.34,29.89,4.87,23.93,1025.42,2036.40,3091.09,3071.48,3321.17,350.29,350.54,8.56,0000 0000 0000 0000 000000
2014-10-08 06:14:34,0.04,0.89,0.00,23.30,27.33,29.94,4.83,23.82,1025.41,2036.41,3090.32,3071.01,3320.82,350.02,350.31,8.58,0000 0000 0000 0000 000000
2014-10-08 06:19:35,0.13,0.89,0.00,23.32,27.32,29.97,4.88,24.02,1025.41,2036.76,3089.50,3070.77,3320.06,350.21,350.48,8.61,0000 0000 0000 0000 000000
2014-10-08 06:24:37,0.08,0.89,0.00,23.28,27.32,29.93,4.79,24.01,1025.40,2036.75,3088.38,3070.04,3319.35,350.24,350.60,8.64,0000 0000 0000 0000 000000
2014-10-08 06:29:38,0.06,0.89,0.00,23.26,27.32,29.88,4.86,24.11,1025.38,2036.71,3087.62,3069.57,3318.80,350.31,350.53,8.67,0000 0000 0000 0000 000000
2014-10-08 06:34:39,0.07,0.90,0.00,23.26,27.32,29.90,4.81,24.04,1025.37,2036.92,3086.92,3069.01,3318.06,350.48,351.14,8.70,0000 0000 0000 0000 000000
2014-10-08 06:39:40,0.06,0.90,0.00,23.31,27.32,29.96,4.84,24.12,1025.33,2036.79,3086.01,3068.41,3317.41,350.07,350.37,8.73,0000 0000 0000 0000 000000
2014-10-08 06:44:41,0.07,0.90,0.00,23.32,27.32,29.95,4.84,24.02,1025.27,2036.95,3085.08,3068.01,3316.96,350.21,350.53,8.76,0000 0000 0000 0000 000000
2014-10-08 06:49:42,0.08,0.90,0.00,23.28,27.31,29.91,4.82,24.01,1025.31,2036.92,3084.13,3067.52,3316.15,349.84,350.31,8.79,0000 0000 0000 0000 000000
2014-10-08 06:54:44,0.06,0.91,0.00,23.25,27.30,29.90,4.84,24.03,1025.34,2036.96,3083.27,3067.01,3315.64,349.56,349.91,8.82,0000 0000 0000 0000 000000
2014-10-08 06:59:45,0.09,0.91,0.00,23.21,27.30,29.86,4.86,23.90,1025.27,2036.98,3082.18,3066.40,3314.94,350.24,350.60,8.85,0000 0000 0000 0000 000000
2014-10-08 07:04:46,0.05,0.91,0.00,23.24,27.29,29.85,4.78,23.98,1025.35,2036.97,3081.35,3065.99,3314.11,349.80,350.16,8.88,0000 0000 0000 0000 000000
2014-10-08 07:09:47,0.05,0.91,0.00,23.31,27.27,29.89,4.87,24.02,1025.36,2036.97,3080.97,3065.34,3313.91,350.47,350.85,8.91,0000 0000 0000 0000 000000
2014-10-08 07:14:49,0.06,0.91,0.00,23.31,27.27,29.89,4.73,23.98,1025.35,2036.98,3080.04,3064.97,3313.08,349.66,350.01,8.94,0000 0000 0000 0000 000000
2014-10-08 07:19:50,0.09,0.92,0.00,23.26,27.27,29.87,4.81,23.98,1025.37,2036.97,3079.12,3064.25,3312.47,349.80,350.40,8.97,0000 0000 0000 0000 000000
2014-10-08 07:24:51,0.04,0.92,0.00,23.30,27.27,29.89,4.80,24.06,1025.33,2036.97,3078.41,3063.96,3311.95,350.14,350.50,8.99,0000 0000 0000 0000 000000
2014-10-08 07:29:52,0.09,0.92,0.00,23.28,27.27,29.89,4.82,23.92,1025.24,2036.98,3077.49,3063.26,3311.19,350.34,350.59,9.02,0000 0000 0000 0000 000000
2014-10-08 07:34:53,0.05,0.92,0.00,23.26,27.27,29.90,4.83,24.10,1025.21,2036.98,3076.65,3062.84,3310.55,350.35,350.81,9.05,0000 0000 0000 0000 000000
2014-10-08 07:39:55,0.06,0.92,0.00,23.31,27.27,29.92,4.83,24.06,1025.08,2036.99,3075.79,3062.05,3310.00,349.82,349.92,9.08,0000 0000 0000 0000 000000
2014-10-08 07:44:56,0.08,0.93,0.00,23.29,27.26,29.90,4.79,23.96,1025.19,2036.98,3074.84,3061.75,3309.25,349.93,350.29,9.11,0000 0000 0000 0000 000000
2014-10-08 07:49:57,0.06,0.93,0.00,23.24,27.25,29.91,4.84,24.03,1025.17,2036.99,3073.97,3061.04,3308.66,350.57,350.79,9.14,0000 0000 0000 0000 000000
2014-10-08 07:54:59,0.07,0.93,0.00,23.21,27.25,29.82,4.84,24.02,1025.21,2036.99,3073.07,3060.66,3308.01,350.41,350.95,9.17,0000 0000 0000 0000 000000
2014-10-08 08:00:00,0.07,0.93,0.00,23.21,27.25,29.82,4.69,23.93,1025.33,2036.99,3072.22,3060.02,3307.24,349.55,350.03,9.20,0000 0000 0000 0000 000000
2014-10-08 08:05:01,0.03,0.93,0.00,23.27,27.24,29.86,4.84,23.95,1025.36,2036.99,3071.73,3059.82,3306.91,349.80,350.03,9.23,0000 0000 0000 0000 000000
2014-10-08 08:10:02,0.08,0.94,0.00,23.32,27.23,29.87,4.82,24.00,1025.37,2036.99,3070.84,3059.06,3306.11,349.97,350.27,9.26,0000 0000 0000 0000 000000
2014-10-08 08:15:04,0.08,0.94,0.00,23.29,27.22,29.86,4.80,23.95,1025.33,2036.99,3069.95,3058.53,3305.43,350.16,350.39,9.29,0000 0000 0000 0000 000000
2014-10-08 08:20:05,0.04,0.94,0.00,23.25,27.22,29.82,4.76,23.90,1025.24,2036.99,3068.99,3058.00,3304.90,349.41,349.75,9.32,0000 0000 0000 0000 000000
2014-10-08 08:25:06,0.09,0.94,0.00,23.22,27.22,29.80,4.79,23.90,1025.22,2036.99,3068.06,3057.33,3304.07,349.57,350.08,9.35,0000 0000 0000 0000 000000
2014-10-08 08:30:08,0.05,0.94,0.00,23.26,27.22,29.84,4.80,23.96,1025.30,2036.99,3067.25,3056.97,3303.43,350.09,350.48,9.38,0000 0000 0000 0000 000000
2014-10-08 08:35:09,0.08,0.95,0.00,23.27,27.22,29.84,4.84,23.88,1025.36,2036.99,3066.33,3056.28,3302.80,350.42,350.57,9.40,0000 0000 0000 0000 000000
2014-10-08 08:40:10,0.05,0.95,0.00,23.26,27.22,29.89,4.76,23.91,1025.35,2036.99,3065.21,3055.95,3302.03,350.12,350.49,9.43,0000 0000 0000 0000 000000
2014-10-08 08:45:12,0.08,0.95,0.00,23.26,27.22,29.87,4.72,23.88,1025.36,2036.99,3064.67,3055.15,3301.45,349.41,349.82,9.46,0000 0000 0000 0000 000000
2014-10-08 08:50:13,0.08,0.95,0.00,23.32,27.22,29.86,4.79,24.00,1025.35,2036.99,3063.66,3054.61,3300.81,349.70,350.03,9.49,0000 0000 0000 0000 000000
2014-10-08 08:55:14,0.06,0.96,0.00,23.29,27.22,29.87,4.82,23.92,1025.39,2036.99,3062.78,3054.01,3300.06,350.02,350.51,9.52,0000 0000 0000 0000 000000
2014-10-08 09:00:15,0.08,0.96,0.00,23.29,27.22,29.89,4.75,23.88,1025.38,2036.99,3061.88,3053.44,3299.33,349.37,349.77,9.55,0000 0000 0000 0000 000000
2014-10-08 09:05:17,0.04,0.96,0.00,23.33,27.22,29.90,4.78,23.98,1025.39,2037.00,3060.96,3052.98,3298.79,349.94,350.19,9.58,0000 0000 0000 0000 000000
2014-10-08 09:10:18,0.09,0.96,0.00,23.30,27.22,29.92,4.91,24.02,1025.40,2037.00,3059.92,3052.21,3297.95,350.43,350.63,9.61,0000 0000 0000 0000 000000
2014-10-08 09:15:19,0.07,0.96,0.00,23.26,27.22,29.88,4.79,23.98,1025.41,2037.00,3058.95,3051.80,3297.14,350.22,350.47,9.64,0000 0000 0000 0000 000000
2014-10-08 09:20:20,0.07,0.97,0.00,23.29,27.22,29.88,4.82,23.97,1025.41,2037.00,3058.07,3051.06,3296.66,349.94,350.32,9.67,0000 0000 0000 0000 000000
2014-10-08 09:25:21,0.07,0.97,0.00,23.31,27.22,29.89,4.83,23.91,1025.43,2037.00,3057.18,3050.61,3295.98,350.38,350.83,9.70,0000 0000 0000 0000 000000
2014-10-08 09:30:23,0.07,0.97,0.00,23.30,27.22,29.90,4.78,23.94,1025.44,2037.00,3056.27,3050.00,3295.17,350.02,350.34,9.73,0000 0000 0000 0000 000000
2014-10-08 09:35:24,0.10,0.97,0.00,23.27,27.22,29.91,4.86,23.90,1025.46,2037.00,3055.16,3049.20,3294.27,350.14,350.59,9.76,0000 0000 0000 0000 000000
2014-10-08 09:40:25,0.07,0.98,0.00,23.24,27.22,29.90,4.76,23.92,1025.48,2037.00,3054.08,3048.75,3293.50,350.03,350.55,9.79,0000 0000 0000 0000 000000
2014-10-08 09:45:26,0.06,0.98,0.00,23.24,27.22,29.91,4.79,23.89,1025.48,2037.00,3053.21,3048.04,3292.98,349.48,350.08,9.81,0000 0000 0000 0000 000000
2014-10-08 09:50:28,0.09,0.98,0.00,23.28,27.22,29.90,4.76,23.96,1025.58,2037.00,3052.36,3047.58,3292.16,350.08,350.74,9.84,0000 0000 0000 0000 000000
2014-10-08 09:55:29,0.06,0.98,0.00,23.30,27.22,29.91,4.80,23.75,1025.68,2037.00,3051.54,3047.02,3291.61,350.31,350.82,9.87,0000 0000 0000 0000 000000
2014-10-08 10:00:30,0.07,0.98,0.00,23.27,27.22,29.90,4.73,23.80,1025.72,2037.00,3050.64,3046.45,3290.94,349.77,350.22,9.90,0000 0000 0000 0000 000000
2014-10-08 10:05:32,0.04,0.99,0.00,23.28,27.22,29.91,4.83,23.96,1025.55,2037.00,3049.83,3045.96,3290.09,349.95,350.23,9.93,0000 0000 0000 0000 000000
2014-10-08 10:10:33,0.10,0.99,0.00,23.32,27.22,29.91,4.80,23.94,1025.48,2037.00,3048.85,3045.19,3289.50,349.90,350.24,9.96,0000 0000 0000 0000 000000
2014-10-08 10:15:34,0.06,0.99,0.00,23.27,27.23,29.94,4.76,23.82,1025.43,2037.00,3047.93,3044.71,3288.86,350.08,350.27,9.99,0000 0000 0000 0000 000000
2014-10-08 10:20:35,0.06,0.99,0.00,23.24,27.23,29.92,4.78,23.87,1025.43,2037.00,3047.04,3044.03,3288.07,350.40,350.52,10.02,0000 0000 0000 0000 000000
2014-10-08 10:25:37,0.09,0.99,0.00,23.31,27.23,29.93,4.84,23.93,1025.43,2037.00,3046.14,3043.47,3287.45,350.03,350.31,10.05,0000 0000 0000 0000 000000
2014-10-08 10:30:38,0.04,1.00,0.00,23.31,27.24,29.91,4.79,23.97,1025.46,2037.00,3045.23,3043.00,3286.87,349.83,350.03,10.08,0000 0000 0000 0000 000000
2014-10-08 10:35:40,0.09,1.00,0.00,23.32,27.24,29.92,4.86,23.98,1025.51,2037.00,3044.42,3042.34,3286.04,350.14,350.49,10.11,0000 0000 0000 0000 000000
2014-10-08 10:40:41,0.08,1.00,0.00,23.30,27.24,29.95,4.83,24.08,1025.60,2037.00,3043.19,3041.74,3285.14,349.78,350.21,10.14,0000 0000 0000 0000 000000
2014-10-08 10:45:42,0.08,1.00,0.00,23.23,27.24,29.94,4.84,23.91,1025.73,2037.00,3042.40,3041.05,3284.60,350.59,350.95,10.17,0000 0000 0000 0000 000000
2014-10-08 10:50:43,0.07,1.01,0.00,23.26,27.24,29.94,4.77,23.90,1025.81,2037.00,3041.46,3040.48,3283.97,349.71,350.24,10.20,0000 0000 0000 0000 000000
2014-10-08 10:55:44,0.05,1.01,0.00,23.31,27.23,29.93,4.85,23.98,1025.79,2037.00,3040.72,3040.02,3283.16,350.06,350.60,10.22,0000 0000 0000 0000 000000
2014-10-08 11:00:46,0.09,1.01,0.00,23.27,27.23,29.93,4.79,23.92,1025.83,2037.00,3039.80,3039.48,3282.56,349.89,350.40,10.25,0000 0000 0000 0000 000000
2014-10-08 11:05:47,0.03,1.01,0.00,23.29,27.23,29.92,4.87,23.93,1025.85,2037.00,3038.92,3038.97,3281.99,350.29,350.78,10.28,0000 0000 0000 0000 000000
2014-10-08 11:10:48,0.09,1.01,0.00,23.30,27.23,29.90,4.80,23.93,1025.82,2037.00,3038.00,3038.24,3281.27,350.16,350.74,10.31,0000 0000 0000 0000 000000
2014-10-08 11:15:49,0.04,1.02,0.00,23.32,27.23,29.90,4.73,23.89,1025.83,2037.00,3037.11,3037.87,3280.75,349.90,349.97,10.34,0000 0000 0000 0000 000000
2014-10-08 11:20:50,0.08,1.02,0.00,23.29,27.24,29.92,4.87,23.89,1025.82,2037.00,3036.29,3037.06,3280.01,350.06,350.55,10.37,0000 0000 0000 0000 000000
2014-10-08 11:25:52,0.08,1.02,0.00,23.25,27.24,29.92,4.80,23.82,1025.85,2037.00,3035.33,3036.69,3279.23,349.84,350.40,10.40,0000 0000 0000 0000 000000
2014-10-08 11:30:53,0.05,1.02,0.00,23.28,27.24,29.93,4.76,23.93,1025.88,2037.00,3034.51,3036.03,3278.72,350.03,350.55,10.43,0000 0000 0000 0000 000000
2014-10-08 11:35:54,0.07,1.02,0.00,23.32,27.24,29.93,4.76,23.92,1025.87,2037.00,3033.64,3035.58,3277.97,349.58,350.11,10.46,0000 0000 0000 0000 000000
2014-10-08 11:40:56,0.06,1.03,0.00,23.28,27.24,29.93,4.91,23.94,1025.87,2037.00,3032.74,3034.98,3277.11,350.32,350.91,10.49,0000 0000 0000 0000 000000
2014-10-08 11:45:57,0.08,1.03,0.00,23.29,27.24,29.93,4.88,23.98,1025.84,2037.00,3031.92,3034.33,3276.68,350.04,350.67,10.52,0000 0000 0000 0000 000000
2014-10-08 11:50:58,0.05,1.03,0.00,23.32,27.25,29.93,4.80,23.89,1025.78,2037.00,3031.04,3033.92,3276.01,350.08,350.64,10.55,0000 0000 0000 0000 000000
2014-10-08 11:55:59,0.09,1.03,0.00,23.32,27.25,29.94,4.74,23.97,1025.60,2037.00,3030.09,3033.14,3275.24,349.84,349.96,10.58,0000 0000 0000 0000 000000
2014-10-08 12:01:00,0.06,1.04,0.00,23.32,27.25,29.94,4.85,23.93,1025.46,2037.00,3029.15,3032.78,3274.72,350.39,350.73,10.60,0000 0000 0000 0000 000000
2014-10-08 12:06:01,0.07,1.04,0.00,23.32,27.25,29.94,4.79,23.84,1025.51,2037.00,3028.30,3032.03,3273.98,349.90,350.27,10.63,0000 0000 0000 0000 000000
2014-10-08 12:11:02,0.08,1.04,0.00,23.32,27.25,29.97,4.84,23.89,1025.47,2037.00,3027.35,3031.63,3273.18,350.33,350.70,10.66,0000 0000 0000 0000 000000
2014-10-08 12:16:04,0.06,1.04,0.00,23.30,27.25,29.95,4.82,23.90,1025.45,2037.00,3026.37,3030.99,3272.57,349.79,350.24,10.69,0000 0000 0000 0000 000000
2014-10-08 12:21:05,0.08,1.05,0.00,23.31,27.25,29.95,4.83,23.92,1025.44,2037.00,3025.49,3030.26,3271.91,349.93,350.25,10.72,0000 0000 0000 0000 000000
2014-10-08 12:26:06,0.07,1.05,0.00,23.32,27.25,29.94,4.81,23.93,1025.43,2037.00,3024.51,3029.81,3271.07,350.17,350.61,10.75,0000 0000 0000 0000 000000
2014-10-08 12:31:08,0.07,1.05,0.00,23.34,27.25,29.94,4.82,23.93,1025.42,2037.00,3023.73,3029.06,3270.39,349.83,350.05,10.78,0000 0000 0000 0000 000000
2014-10-08 12:36:09,0.09,1.05,0.00,23.37,27.25,29.94,4.83,24.02,1025.42,2037.00,3022.67,3028.52,3269.66,350.47,350.93,10.81,0000 0000 0000 0000 000000
2014-10-08 12:41:10,0.06,1.05,0.00,23.35,27.25,29.96,4.73,23.89,1025.41,2036.99,3021.57,3027.90,3268.87,349.80,350.09,10.84,0000 0000 0000 0000 000000
2014-10-08 12:46:11,0.08,1.06,0.00,23.35,27.25,29.95,4.83,23.98,1025.40,2036.99,3020.71,3027.16,3268.11,349.86,350.23,10.87,0000 0000 0000 0000 000000
2014-10-08 12:51:13,0.10,1.06,0.00,23.36,27.25,29.96,4.82,23.83,1025.40,2036.99,3019.59,3026.57,3267.20,349.75,349.99,10.90,0000 0000 0000 0000 000000
2014-10-08 12:56:14,0.06,1.06,0.00,23.34,27.25,29.98,4.84,23.90,1025.40,2036.99,3018.64,3025.98,3266.62,350.11,350.53,10.93,0000 0000 0000 0000 000000
2014-10-08 13:01:15,0.09,1.06,0.00,23.35,27.25,29.97,4.81,23.80,1025.40,2036.99,3017.60,3025.14,3265.84,349.94,350.22,10.96,0000 0000 0000 0000 000000
2014-10-08 13:06:16,0.09,1.07,0.00,23.36,27.25,29.96,4.85,23.85,1025.41,2036.99,3016.53,3024.60,3264.95,350.11,350.38,10.99,0000 0000 0000 0000 000000